Change the Weather History Date:

Saturday, February 4, 2012

  Actual Average Record
Temperature  
Mean Temperature 34 °F 31 °F  
Max Temperature 46 °F 41 °F 59 °F (1934)
Min Temperature 21 °F 20 °F -10 °F (1903)
Degree Days  
Heating Degree Days 31 34  
Month to date heating degree days 114 139  
Since 1 July heating degree days 3377 3665  
Cooling Degree Days 0 0  
Month to date cooling degree days 0 0  
Year to date cooling degree days 0 0  
Moisture  
Dew Point 15 °F    
Average Humidity 51    
Maximum Humidity 74    
Minimum Humidity 27    
Precipitation  
Precipitation 0.00 in 0.02 in 0.53 in (1989)
Month to date precipitation T 0.07  
Year to date precipitation 0.37 0.65  
Snow  
Snow 0.00 in 0.10 in 8.70 in (1989)
Month to date snowfall 0.0 0.5  
Since 1 July snowfall 3.7 12.8  
Snow Depth 0.00 in    
Sea Level Pressure  
Sea Level Pressure 30.29 in    
Wind  
Wind Speed 3 mph (ESE)    
Max Wind Speed 14 mph    
Max Gust Speed 18 mph    
Visibility 10 miles    
Events      
T = Trace of Precipitation, MM = Missing Value Source: NWS Daily Summary

Daily Weather History Graph

Daily Weather History Graph

Search for Another Location

Airport or City:

Trip Planner

Search our weather history database for the weather conditions in past years. The results will help you decide how hot, cold, wet, or windy it might be!

Date:

Astronomy

Feb. 04, 2012 Rise Set
Actual Time 7:18 AM MST 5:38 PM MST
Civil Twilight 6:50 AM MST 6:06 PM MST
Nautical Twilight 6:18 AM MST 6:38 PM MST
Astronomical Twilight 5:47 AM MST 7:09 PM MST
Moon 2:39 PM MST (2/4) 4:45 AM MST (2/4)
Length of Visible Light 11h 15m
Length of Day
10h 19m
Waxing Gibbous, 89% of the Moon is Illuminated
Feb 4
Waxing Gibbous
Feb 7
Full
Feb 14
Last Quarter
Feb 21
New
Feb 29
First Quarter

Hourly Weather History & Observations

Time (MST) Temp. Windchill Dew Point Humidity Pressure Visibility Wind Dir Wind Speed Gust Speed Precip Events Conditions
12:53 AM 28.0 °F - 16.0 °F 61% 30.23 in 10.0 mi Calm Calm - N/A   Clear
1:53 AM 28.0 °F - 16.0 °F 61% 30.24 in 10.0 mi Calm Calm - N/A   Clear
2:53 AM 24.1 °F - 16.0 °F 71% 30.25 in 10.0 mi Calm Calm - N/A   Clear
3:53 AM 23.0 °F - 16.0 °F 74% 30.26 in 10.0 mi Calm Calm - N/A   Clear
4:53 AM 25.0 °F 19.3 °F 15.1 °F 66% 30.27 in 10.0 mi SE 4.6 mph - N/A   Clear
5:53 AM 25.0 °F 15.5 °F 15.1 °F 66% 30.30 in 10.0 mi SE 9.2 mph - N/A   Clear
6:53 AM 27.0 °F - 14.0 °F 58% 30.32 in 10.0 mi Calm Calm - N/A   Clear
7:53 AM 24.1 °F - 15.1 °F 69% 30.36 in 10.0 mi Calm Calm - N/A   Clear
8:53 AM 28.0 °F - 17.1 °F 63% 30.36 in 10.0 mi Calm Calm - N/A   Clear
9:53 AM 35.1 °F - 16.0 °F 46% 30.35 in 10.0 mi Calm Calm - N/A   Clear
10:53 AM 39.0 °F 32.3 °F 12.9 °F 34% 30.35 in 10.0 mi ESE 10.4 mph - N/A   Clear
11:53 AM 39.9 °F 35.1 °F 12.0 °F 32% 30.34 in 10.0 mi SE 6.9 mph - N/A   Clear
12:53 PM 42.1 °F 37.1 °F 12.0 °F 29% 30.30 in 10.0 mi SSE 8.1 mph - N/A   Clear
1:53 PM 43.0 °F 39.5 °F 12.0 °F 28% 30.26 in 10.0 mi SSE 5.8 mph - N/A   Clear
2:53 PM 45.0 °F - 12.9 °F 27% 30.25 in 10.0 mi Calm Calm - N/A   Clear
3:53 PM 45.0 °F - 12.0 °F 26% 30.25 in 10.0 mi Calm Calm - N/A   Clear
4:53 PM 44.1 °F 41.5 °F 12.9 °F 28% 30.25 in 10.0 mi WNW 4.6 mph - N/A   Clear
5:53 PM 37.9 °F 34.4 °F 14.0 °F 38% 30.27 in 10.0 mi NNW 4.6 mph - N/A   Clear
6:53 PM 32.0 °F - 15.1 °F 50% 30.29 in 10.0 mi Calm Calm - N/A   Clear
7:53 PM 30.0 °F - 15.1 °F 54% 30.33 in 10.0 mi Calm Calm - N/A   Clear
8:53 PM 32.0 °F 28.7 °F 15.1 °F 50% 30.32 in 10.0 mi ESE 3.5 mph - N/A   Clear
9:53 PM 28.0 °F 21.7 °F 15.1 °F 58% 30.32 in 10.0 mi ENE 5.8 mph - N/A   Mostly Cloudy
10:53 PM 30.9 °F 27.5 °F 15.1 °F 52% 30.30 in 10.0 mi ENE 3.5 mph - N/A   Overcast
11:53 PM 25.0 °F 19.3 °F 15.1 °F 66% 30.31 in 10.0 mi East 4.6 mph - N/A   Partly Cloudy